• en Suisse
  • Liste des pays
  • À 7 jours
  • Température de l'eau
  • Carte satellitaire
  • Carte météo
  • Widgets météo
  • user-avatar
    Se connecter

    Météo par heure à Kalemie

    Ce jour, 21 Juin, Jeudi

    Heure Température Précipitation Vent Pression Humidité
    00:00 +21°C° 0 mm 0 m/s 709 mmHg 84%
    01:00 +21°C° 0 mm 0 m/s 709 mmHg 84%
    02:00 +20°C° 0 mm 0 m/s 708 mmHg 84%
    03:00 +20°C° 0 mm 0 m/s 708 mmHg 85%
    04:00 +20°C° 0 mm 0 m/s 708 mmHg 86%
    05:00 +19°C° 0 mm 0 m/s 708 mmHg 86%
    06:00 +21°C° 0 mm 0 m/s 709 mmHg 82%
    07:00 +24°C° 0 mm 1 m/s 709 mmHg 77%
    08:00 +26°C° 0 mm 1 m/s 710 mmHg 72%
    09:00 +28°C° 0 mm 1 m/s 710 mmHg 65%
    10:00 +31°C° 0 mm 1 m/s 710 mmHg 57%
    11:00 +33°C° 0 mm 1 m/s 710 mmHg 50%
    12:00 +33°C° 0 mm 1 m/s 709 mmHg 48%
    13:00 +33°C° 0 mm 1 m/s 709 mmHg 46%
    14:00 +33°C° 0 mm 1 m/s 708 mmHg 44%
    15:00 +33°C° 0 mm 1 m/s 708 mmHg 49%
    16:00 +32°C° 0 mm 1 m/s 707 mmHg 54%
    17:00 +31°C° 0 mm 1 m/s 707 mmHg 58%
    18:00 +27°C° 0 mm 0 m/s 707 mmHg 62%
    19:00 +26°C° 0 mm 0 m/s 707 mmHg 66%
    20:00 +24°C° 0 mm 0 m/s 707 mmHg 69%
    21:00 +23°C° 0 mm 0 m/s 707 mmHg 71%
    22:00 +23°C° 0 mm 0 m/s 707 mmHg 72%
    23:00 +22°C° 0 mm 0 m/s 708 mmHg 74%

    Demain, 22 Juin, Vendredi

    Heure Température Précipitation Vent Pression Humidité
    00:00 +22°C° 0 mm 0 m/s 708 mmHg 75%
    01:00 +22°C° 0 mm 0 m/s 707 mmHg 76%
    02:00 +23°C° 0 mm 1 m/s 707 mmHg 77%
    03:00 +23°C° 0 mm 1 m/s 707 mmHg 80%
    04:00 +22°C° 0 mm 1 m/s 707 mmHg 83%
    05:00 +22°C° 0 mm 1 m/s 708 mmHg 85%
    06:00 +23°C° 0,2 mm 1 m/s 708 mmHg 84%
    07:00 +24°C° 0,2 mm 1 m/s 708 mmHg 82%
    08:00 +25°C° 0,2 mm 2 m/s 709 mmHg 80%
    09:00 +28°C° 0 mm 1 m/s 709 mmHg 70%
    10:00 +30°C° 0 mm 1 m/s 709 mmHg 61%
    11:00 +33°C° 0 mm 1 m/s 709 mmHg 51%
    12:00 +33°C° 0 mm 1 m/s 709 mmHg 48%
    13:00 +34°C° 0 mm 1 m/s 708 mmHg 46%
    14:00 +34°C° 0 mm 1 m/s 707 mmHg 43%
    15:00 +34°C° 0 mm 1 m/s 707 mmHg 47%
    16:00 +33°C° 0 mm 1 m/s 706 mmHg 51%
    17:00 +32°C° 0 mm 1 m/s 706 mmHg 55%
    18:00 +30°C° 0 mm 1 m/s 706 mmHg 59%
    19:00 +28°C° 0 mm 1 m/s 706 mmHg 63%
    20:00 +26°C° 0 mm 1 m/s 707 mmHg 67%
    21:00 +25°C° 0,2 mm 1 m/s 707 mmHg 72%
    22:00 +25°C° 0,2 mm 1 m/s 707 mmHg 77%
    23:00 +24°C° 0,2 mm 2 m/s 708 mmHg 82%

    Après-demain, 23 Juin, Samedi

    Heure Température Précipitation Vent Pression Humidité
    00:00 +23°C° 0 mm 2 m/s 707 mmHg 84%
    01:00 +23°C° 0 mm 2 m/s 707 mmHg 86%
    02:00 +23°C° 0 mm 2 m/s 707 mmHg 88%
    03:00 +21°C° 0 mm 2 m/s 707 mmHg 89%
    04:00 +21°C° 0 mm 2 m/s 707 mmHg 90%
    05:00 +21°C° 0 mm 2 m/s 707 mmHg 91%
    06:00 +21°C° 0,1 mm 2 m/s 707 mmHg 88%
    07:00 +23°C° 0,1 mm 2 m/s 708 mmHg 85%
    08:00 +24°C° 0,1 mm 2 m/s 708 mmHg 83%
    09:00 +27°C° 0 mm 2 m/s 709 mmHg 73%
    10:00 +29°C° 0 mm 2 m/s 709 mmHg 63%
    11:00 +31°C° 0 mm 2 m/s 709 mmHg 53%
    12:00 +32°C° 0 mm 2 m/s 709 mmHg 50%
    13:00 +34°C° 0 mm 2 m/s 708 mmHg 46%
    14:00 +35°C° 0 mm 2 m/s 707 mmHg 43%
    15:00 +33°C° 0 mm 1 m/s 706 mmHg 47%
    16:00 +33°C° 0 mm 1 m/s 706 mmHg 51%
    17:00 +32°C° 0 mm 1 m/s 705 mmHg 54%
    18:00 +30°C° 0 mm 1 m/s 706 mmHg 58%
    19:00 +28°C° 0 mm 1 m/s 706 mmHg 62%
    20:00 +27°C° 0 mm 1 m/s 707 mmHg 66%
    21:00 +26°C° 0,2 mm 1 m/s 707 mmHg 70%
    22:00 +25°C° 0,2 mm 1 m/s 706 mmHg 75%
    23:00 +24°C° 0,2 mm 1 m/s 706 mmHg 79%

    24 Juin, Dimanche

    Heure Température Précipitation Vent Pression Humidité
    00:00 +24°C° 0,2 mm 1 m/s 706 mmHg 82%
    01:00 +23°C° 0,2 mm 2 m/s 706 mmHg 85%
    02:00 +23°C° 0,2 mm 2 m/s 705 mmHg 89%
    03:00 +21°C° 0,7 mm 2 m/s 706 mmHg 91%
    04:00 +22°C° 0,7 mm 1 m/s 706 mmHg 93%
    05:00 +21°C° 0,7 mm 1 m/s 706 mmHg 96%
    06:00 +22°C° 0,4 mm 1 m/s 706 mmHg 94%
    07:00 +23°C° 0,4 mm 1 m/s 707 mmHg 92%
    08:00 +24°C° 0,4 mm 1 m/s 708 mmHg 91%
    09:00 +25°C° 0,7 mm 2 m/s 708 mmHg 86%
    10:00 +27°C° 0,7 mm 2 m/s 708 mmHg 81%
    11:00 +28°C° 0,7 mm 2 m/s 708 mmHg 75%
    12:00 +28°C° 1,3 mm 2 m/s 708 mmHg 75%
    13:00 +28°C° 1,3 mm 2 m/s 707 mmHg 75%
    14:00 +28°C° 1,3 mm 2 m/s 706 mmHg 75%
    15:00 +28°C° 0,2 mm 1 m/s 706 mmHg 76%
    16:00 +28°C° 0,2 mm 1 m/s 706 mmHg 77%
    17:00 +27°C° 0,2 mm 1 m/s 706 mmHg 79%
    18:00 +26°C° 0 mm 1 m/s 706 mmHg 81%
    19:00 +25°C° 0 mm 1 m/s 707 mmHg 83%
    20:00 +24°C° 0 mm 1 m/s 707 mmHg 85%
    21:00 +23°C° 0 mm 1 m/s 707 mmHg 86%
    22:00 +23°C° 0 mm 1 m/s 707 mmHg 86%
    23:00 +22°C° 0 mm 1 m/s 706 mmHg 86%

    25 Juin, Lundi

    Heure Température Précipitation Vent Pression Humidité
    00:00 +22°C° 0 mm 1 m/s 706 mmHg 87%
    01:00 +22°C° 0 mm 1 m/s 705 mmHg 88%
    02:00 +21°C° 0 mm 1 m/s 705 mmHg 89%
    03:00 +21°C° 0 mm 1 m/s 705 mmHg 89%
    04:00 +21°C° 0 mm 1 m/s 705 mmHg 90%
    05:00 +21°C° 0 mm 1 m/s 705 mmHg 90%
    06:00 +22°C° 0 mm 1 m/s 706 mmHg 85%
    07:00 +24°C° 0 mm 1 m/s 707 mmHg 79%
    08:00 +25°C° 0 mm 1 m/s 708 mmHg 74%
    09:00 +28°C° 0 mm 1 m/s 708 mmHg 64%
    10:00 +31°C° 0 mm 1 m/s 708 mmHg 54%
    11:00 +34°C° 0 mm 1 m/s 708 mmHg 44%
    12:00 +34°C° 0 mm 1 m/s 707 mmHg 43%
    13:00 +32°C° 0 mm 0 m/s 707 mmHg 42%
    14:00 +33°C° 0 mm 0 m/s 706 mmHg 42%
    15:00 +32°C° 0 mm 0 m/s 706 mmHg 46%
    16:00 +31°C° 0 mm 0 m/s 705 mmHg 50%
    17:00 +30°C° 0 mm 0 m/s 705 mmHg 54%
    18:00 +28°C° 0 mm 0 m/s 705 mmHg 57%
    19:00 +26°C° 0 mm 0 m/s 706 mmHg 59%
    20:00 +27°C° 0 mm 1 m/s 706 mmHg 62%
    21:00 +26°C° 0 mm 1 m/s 706 mmHg 64%
    22:00 +23°C° 0 mm 0 m/s 706 mmHg 66%
    23:00 +23°C° 0 mm 0 m/s 706 mmHg 68%

    26 Juin, Mardi

    Heure Température Précipitation Vent Pression Humidité
    00:00 +22°C° 0 mm 0 m/s 705 mmHg 70%
    01:00 +24°C° 0 mm 1 m/s 705 mmHg 72%
    02:00 +23°C° 0 mm 1 m/s 704 mmHg 75%
    03:00 +23°C° 0,2 mm 1 m/s 705 mmHg 78%
    04:00 +22°C° 0,2 mm 1 m/s 705 mmHg 81%
    05:00 +22°C° 0,2 mm 1 m/s 706 mmHg 85%
    06:00 +23°C° 0,2 mm 1 m/s 706 mmHg 84%
    07:00 +24°C° 0,2 mm 2 m/s 707 mmHg 84%
    08:00 +24°C° 0,2 mm 2 m/s 707 mmHg 83%
    09:00 +27°C° 0,1 mm 2 m/s 707 mmHg 74%
    10:00 +29°C° 0,1 mm 1 m/s 707 mmHg 64%
    11:00 +32°C° 0,1 mm 1 m/s 707 mmHg 55%
    12:00 +32°C° 0,8 mm 1 m/s 706 mmHg 58%
    13:00 +31°C° 0,8 mm 2 m/s 706 mmHg 60%
    14:00 +31°C° 0,8 mm 2 m/s 705 mmHg 63%
    15:00 +30°C° 0,4 mm 2 m/s 705 mmHg 64%
    16:00 +30°C° 0,4 mm 2 m/s 705 mmHg 66%
    17:00 +29°C° 0,4 mm 2 m/s 705 mmHg 68%
    18:00 +27°C° 0,1 mm 2 m/s 705 mmHg 73%
    19:00 +26°C° 0,1 mm 3 m/s 705 mmHg 78%
    20:00 +24°C° 0,1 mm 3 m/s 706 mmHg 83%
    21:00 +24°C° 0 mm 2 m/s 706 mmHg 84%
    22:00 +23°C° 0 mm 2 m/s 706 mmHg 84%
    23:00 +23°C° 0 mm 2 m/s 706 mmHg 85%
    Voir plus